Wind_Speed
33 32 32 32 32 33 33 34 35 36 35 35 35 34 34 34 33 33 33 33 34 34 34 34 35 36 37 38 38 38 39 39 39 39 40 39 37 35 36 38 39 40 40 38 37 36 35 35 35 35 35 35 33 33 33 34 33 33 33 32 32 32 32 32 31 30 33 35 36 35 33 31 29 29 30 30 29 29 28 28 28 28 28 28 28
32 31 31 31 32 33 33 34 35 35 36 36 36 36 35 35 35 35 35 35 35 35 35 36 36 36 37 39 40 40 40 41 41 40 41 41 38 37 38 38 38 40 42 40 39 38 37 36 35 35 36 36 35 34 33 33 34 34 34 33 33 33 34 34 33 32 33 35 37 36 34 31 30 29 30 30 29 29 28 28 28 29 29 29 28
32 32 32 32 32 33 34 34 35 35 36 36 36 36 37 37 37 37 36 36 37 37 37 37 37 37 38 39 40 41 41 41 42 41 41 41 40 38 38 38 38 39 42 42 41 40 39 38 37 37 37 36 35 34 34 33 34 35 35 35 35 34 35 35 35 33 33 35 37 36 34 32 30 30 30 30 29 29 29 29 29 29 29 29 28
33 34 34 34 34 35 35 35 35 35 36 37 37 38 38 39 39 39 38 38 38 38 39 39 39 40 40 40 41 42 42 41 42 42 41 42 42 40 39 39 38 39 41 42 42 42 41 40 39 39 39 37 35 35 34 34 35 35 35 36 36 36 36 36 36 35 34 35 36 36 34 33 31 31 31 30 30 29 29 29 29 29 29 29 28
36 36 36 36 36 36 37 36 36 36 36 37 38 38 39 40 40 41 40 40 40 40 40 40 41 42 42 42 42 43 43 42 42 42 42 42 42 42 41 40 39 39 40 41 43 44 42 41 41 41 41 39 36 35 35 34 35 35 36 36 36 36 37 37 36 35 34 34 34 35 34 32 31 30 30 30 30 29 29 29 28 28 29 29 28
39 39 39 39 39 39 39 39 38 38 38 38 38 39 40 41 42 42 43 42 42 41 41 42 42 43 44 44 44 44 44 44 43 42 42 42 42 42 43 42 40 39 40 41 43 45 44 42 41 42 42 40 39 37 36 36 36 36 36 35 36 36 37 36 36 35 34 33 34 33 32 31 30 30 30 30 30 29 29 29 29 29 31 30 28
43 43 43 43 43 44 44 43 42 41 41 40 40 40 40 42 42 43 43 43 43 43 43 43 44 44 45 46 46 46 45 45 43 43 43 43 42 43 43 44 42 40 40 41 43 45 45 43 42 43 43 42 40 39 38 37 37 37 36 36 36 37 36 35 34 34 34 34 33 32 31 32 31 31 31 31 30 30 31 32 32 32 32 31 29
45 46 47 47 47 48 47 47 46 45 44 44 43 43 43 42 42 43 43 44 44 45 45 45 45 46 46 47 47 47 47 45 44 44 44 44 44 44 44 45 45 43 41 42 43 45 45 44 43 43 43 42 42 41 40 39 38 38 37 37 37 36 35 34 34 34 34 34 33 32 32 33 32 32 33 33 32 33 34 34 34 33 33 32 31
45 46 47 47 47 47 47 47 46 46 46 46 46 46 46 45 44 44 44 45 45 46 47 47 47 47 48 48 49 48 47 46 44 44 45 45 45 45 45 45 46 45 43 42 43 44 45 45 44 43 43 43 43 42 41 41 40 39 38 38 37 36 34 34 34 35 35 34 33 33 34 34 33 34 34 34 34 35 36 35 34 35 35 34 33
44 45 46 46 46 46 46 46 45 45 45 46 46 46 46 46 46 45 45 46 47 47 47 48 48 48 49 49 49 48 46 45 45 45 46 46 46 46 46 46 47 46 45 44 43 44 45 46 45 44 43 43 43 42 42 41 41 40 39 39 38 37 35 35 35 35 35 34 34 35 35 35 34 35 35 36 37 37 36 36 36 37 36 35 34
44 44 44 44 44 44 44 44 44 44 44 44 45 45 45 45 45 45 46 47 48 48 48 48 49 49 50 49 48 47 45 45 46 47 48 48 48 47 47 47 48 47 47 45 44 44 45 46 46 45 44 44 44 43 43 43 42 41 40 40 39 38 37 37 36 36 36 36 36 36 36 35 36 36 36 37 39 39 39 40 39 38 37 37 37
42 41 40 40 40 41 41 41 41 41 41 41 42 42 42 43 43 45 46 47 48 49 49 49 49 49 49 48 47 46 46 46 48 49 49 49 50 49 48 48 48 48 47 46 45 45 46 46 47 46 45 45 44 45 45 44 42 41 40 41 41 40 39 38 38 38 38 38 37 37 36 37 37 38 37 39 41 42 42 42 41 39 39 39 40
38 38 38 38 38 38 38 39 39 39 39 39 39 40 41 42 43 45 46 47 48 48 48 49 48 48 48 48 47 47 46 46 48 49 49 49 50 50 49 48 48 48 48 47 47 46 46 46 47 47 46 45 46 46 45 44 44 44 44 44 44 42 40 39 39 39 39 38 38 36 37 39 40 39 39 41 44 43 41 41 41 41 40 39 40
37 37 37 37 37 37 38 38 38 38 38 38 39 40 42 43 44 45 46 46 47 47 47 47 47 48 48 48 48 46 45 44 46 47 47 47 49 50 49 48 47 47 48 48 48 47 46 45 47 47 47 47 46 45 44 44 46 47 48 48 45 42 41 40 39 38 38 39 39 37 38 41 42 43 44 45 44 42 39 40 41 42 42 40 39
38 38 38 38 38 38 38 38 38 38 39 39 40 41 42 43 43 44 44 45 45 45 46 47 47 47 47 47 46 44 43 44 45 46 46 47 47 48 49 48 47 46 47 48 48 47 46 46 46 47 48 47 46 45 45 46 48 50 49 47 43 41 42 42 40 40 40 41 41 41 41 44 45 47 48 47 45 42 40 40 41 42 42 40 40
41 40 39 39 39 39 39 39 39 39 40 40 41 41 41 41 41 42 43 44 45 46 46 45 44 44 44 44 45 44 42 43 44 45 45 46 47 47 47 47 47 46 46 47 48 48 47 46 46 47 48 47 45 45 46 48 50 50 47 44 41 40 41 41 42 43 44 44 44 45 45 47 47 48 49 49 47 44 41 41 43 43 42 42 42
42 41 41 40 40 40 40 39 39 39 40 39 39 39 39 39 41 42 43 44 44 44 43 42 41 42 43 43 44 43 40 40 41 42 43 44 46 46 45 46 46 45 45 46 47 48 47 46 46 47 48 47 45 46 48 50 51 49 45 43 42 41 40 40 41 44 46 47 47 48 48 48 48 49 49 48 47 46 44 42 43 44 44 44 43
42 42 41 41 40 39 40 39 39 39 38 38 37 37 38 39 41 43 43 42 41 41 41 40 41 41 42 41 41 39 37 36 37 39 41 43 45 45 44 44 45 45 45 46 47 47 47 47 47 47 47 46 46 48 50 51 51 49 45 43 43 41 39 39 40 43 46 48 49 48 48 49 49 50 50 49 48 49 48 45 45 47 47 45 42
42 42 41 40 39 39 39 38 38 37 36 36 36 37 38 40 41 41 40 40 39 39 40 40 40 40 40 38 37 36 35 34 35 37 38 41 44 44 43 43 43 44 44 45 46 47 47 47 48 48 47 46 47 50 51 51 51 49 45 43 43 39 37 39 42 43 45 48 49 49 50 50 51 52 52 52 50 49 50 48 47 48 47 43 42
42 41 40 39 39 38 38 37 36 36 35 35 36 37 39 39 39 39 39 39 38 39 39 40 38 37 36 36 35 35 35 35 36 36 37 39 41 42 41 41 41 42 43 45 46 47 47 47 48 48 47 47 49 51 51 51 52 49 45 43 40 36 36 41 43 43 44 47 48 48 48 49 51 52 54 55 52 49 50 51 50 48 46 43 41
41 40 39 38 38 37 37 36 35 35 35 35 36 38 39 38 37 38 38 38 38 38 38 38 36 34 34 35 35 36 36 36 36 36 36 37 39 39 39 39 39 40 42 44 46 47 47 47 48 49 48 48 50 51 51 51 51 49 45 41 38 37 40 43 43 43 44 44 44 44 45 47 49 50 52 52 50 47 48 50 50 49 46 42 40
40 38 37 37 36 36 36 35 35 35 35 36 37 38 37 36 36 37 37 37 37 37 37 36 35 33 33 34 34 34 34 34 34 33 34 35 36 37 36 36 37 38 40 42 45 46 47 48 49 49 49 49 50 51 51 50 49 48 44 40 39 41 42 42 41 42 43 42 42 42 44 45 46 45 44 44 45 45 47 49 49 47 44 41 41
39 37 37 36 36 35 35 35 35 35 35 36 38 37 36 35 36 36 37 37 37 37 36 35 33 32 32 32 32 32 32 31 31 31 31 32 33 33 32 33 34 36 38 40 43 46 47 49 49 49 50 50 51 51 51 49 48 47 43 40 40 42 42 40 40 42 42 42 43 43 43 44 43 42 41 41 43 45 47 48 48 45 42 41 42
39 37 36 36 36 35 35 35 34 34 35 37 38 36 35 35 35 36 37 37 36 35 34 34 33 32 30 30 30 31 30 29 28 28 28 29 29 29 29 29 31 34 36 38 41 44 47 49 49 50 51 51 51 51 50 48 47 45 42 39 40 41 39 39 40 40 41 41 42 42 42 42 40 39 40 41 42 44 45 45 45 43 42 42 43
37 36 36 36 35 35 34 34 34 35 36 37 36 35 34 35 35 36 36 36 35 34 33 33 32 31 30 29 29 29 29 28 27 27 27 27 27 28 28 28 30 32 34 36 40 43 46 48 49 50 51 51 51 50 49 47 45 43 40 39 40 39 38 38 38 39 39 40 40 39 39 39 38 38 39 39 40 42 43 42 43 44 44 44 44
36 35 35 35 34 34 33 33 34 36 37 36 35 34 35 35 35 35 35 35 34 33 32 32 32 31 30 29 27 27 27 27 26 26 26 26 27 27 28 28 29 30 32 34 38 42 45 47 48 49 50 50 49 47 46 44 43 41 40 40 40 39 38 39 38 38 38 39 38 37 37 38 38 38 38 38 38 39 40 41 43 45 47 46 47
34 34 34 33 33 33 32 33 34 35 35 34 34 35 36 36 35 34 34 33 33 32 31 31 30 30 30 29 27 25 26 26 24 24 25 25 26 27 27 26 27 28 30 32 36 40 43 45 47 47 47 47 46 44 43 42 40 40 39 40 39 38 38 38 37 37 37 37 37 37 37 37 37 37 37 38 38 39 41 43 44 46 47 47 48
34 33 33 33 32 32 33 34 34 33 33 34 34 35 36 37 35 34 33 32 31 31 31 30 30 29 28 26 24 23 24 24 23 22 22 23 23 24 24 24 24 25 27 30 34 38 41 43 44 44 44 43 42 40 39 39 39 39 39 39 39 37 36 36 36 36 37 37 36 37 37 36 36 37 38 40 41 42 43 45 47 49 52 52 50
33 33 33 33 33 33 33 34 33 33 33 34 35 36 36 35 33 32 32 32 30 29 30 30 30 29 27 23 21 22 22 22 20 19 19 19 20 21 21 21 22 23 25 28 31 35 37 39 40 40 40 38 37 36 37 38 39 39 39 39 38 38 37 36 36 36 36 36 36 36 37 36 36 38 40 43 45 48 50 52 52 54 59 62 58
34 34 34 34 34 34 34 34 34 34 34 35 35 35 35 33 31 29 29 29 28 28 28 28 28 27 24 21 19 19 19 19 17 16 16 17 18 19 19 19 20 20 22 25 28 31 33 35 36 36 36 36 36 36 38 40 40 40 40 39 38 38 37 36 36 36 35 36 36 36 36 36 36 37 39 41 42 45 50 55 58 59 64 67 65
35 35 36 36 36 36 35 35 36 35 35 35 34 32 31 31 31 29 27 26 26 26 26 25 25 22 19 17 16 16 16 16 15 15 15 16 17 18 19 19 19 19 20 21 24 27 30 32 33 34 34 35 36 35 36 38 39 39 39 38 38 37 36 36 36 36 36 36 37 37 37 37 37 38 39 40 40 40 42 45 48 53 61 66 68
37 37 37 37 37 37 36 36 36 35 35 34 31 28 27 28 29 29 27 25 25 25 24 24 22 18 15 15 15 14 13 14 15 15 15 15 16 18 18 19 19 19 19 20 22 24 27 29 30 31 33 34 35 34 34 36 38 38 38 37 36 35 35 35 35 35 36 37 37 37 37 38 39 40 41 41 42 41 39 38 37 39 47 57 64
38 38 38 38 38 37 37 36 35 34 32 30 27 25 24 24 26 26 25 25 24 23 22 21 18 15 14 15 14 13 13 12 13 14 14 14 15 16 17 18 19 19 20 21 22 23 25 26 27 29 31 33 34 34 33 33 35 36 36 36 36 35 35 36 36 36 37 37 37 37 38 38 39 40 40 40 40 39 38 37 36 36 39 45 53
37 36 36 36 36 35 35 34 32 30 27 25 24 22 22 22 22 21 21 22 22 20 19 19 16 13 14 15 14 13 13 13 12 13 14 14 14 15 16 17 18 19 19 21 22 22 23 24 26 28 29 31 32 33 32 30 31 33 34 35 35 36 36 36 36 36 36 37 37 37 38 40 40 40 39 38 38 39 39 38 39 39 39 40 43
32 32 32 32 32 31 31 29 27 25 23 21 20 19 18 19 20 18 18 19 18 17 17 18 16 12 12 14 14 14 14 14 13 13 13 13 12 13 14 16 17 18 19 20 22 23 22 23 24 26 27 29 31 32 31 30 30 32 33 35 35 35 36 36 36 36 36 36 36 37 38 40 40 39 37 37 37 39 40 40 40 41 41 42 43
27 27 27 27 26 25 24 23 21 20 19 17 16 15 15 16 17 16 16 16 15 14 15 14 12 9 8 10 13 13 12 12 12 11 10 10 10 10 11 13 16 18 19 20 21 21 21 22 23 24 25 28 30 31 31 31 31 31 33 34 35 35 36 37 37 37 37 37 37 37 36 36 37 37 37 38 38 38 39 38 38 38 38 38 37
25 24 24 23 21 19 17 15 15 15 14 13 13 12 12 13 15 15 14 14 13 13 11 9 7 5 5 8 10 9 7 8 9 9 9 8 8 9 9 10 12 15 16 18 20 20 21 22 22 22 24 27 28 30 31 31 31 32 33 34 34 35 36 36 37 38 38 38 37 35 34 36 38 39 40 39 38 37 37 35 33 32 30 28 27
23 22 20 19 17 15 12 11 10 10 10 10 11 9 8 10 13 13 13 12 11 11 11 11 11 9 6 6 8 7 6 7 7 6 6 6 6 7 8 9 10 11 12 15 18 20 21 22 22 22 24 26 26 27 28 29 30 31 31 32 32 33 33 34 35 36 35 35 34 34 35 38 39 38 37 34 32 31 29 28 26 25 24 23 22
21 19 17 16 15 13 11 9 9 8 8 9 9 7 6 9 10 10 9 9 9 10 10 10 11 10 9 9 8 5 5 6 6 5 4 4 4 6 7 8 9 9 10 11 14 16 18 19 20 21 24 25 25 25 26 27 28 29 31 32 32 33 33 34 34 35 35 35 34 34 34 34 32 30 27 26 24 24 23 23 22 21 21 21 22
19 18 15 14 12 11 10 9 9 8 7 7 6 4 4 5 7 6 6 6 7 7 7 8 9 9 9 10 9 5 3 2 3 4 4 4 4 4 5 6 7 7 7 9 12 14 15 17 19 21 22 23 23 24 25 25 27 29 31 33 34 34 34 34 34 33 32 31 30 28 27 25 24 23 22 22 22 22 22 22 22 22 23 24 25
18 16 14 12 10 10 9 9 8 7 6 5 3 1 1 3 4 4 4 5 6 5 5 7 10 10 9 9 10 9 6 4 3 2 2 2 3 4 4 6 6 7 7 7 7 8 10 13 16 19 21 22 23 24 26 27 28 27 26 26 27 27 27 26 25 23 21 21 20 20 20 20 20 21 21 21 22 22 23 23 24 25 26 27 28
17 15 13 10 9 8 8 8 7 6 5 3 1 1 1 2 3 2 3 4 6 5 4 7 12 13 10 9 11 11 9 7 5 6 7 5 2 0 2 4 5 6 7 8 8 8 9 10 11 13 16 18 19 19 20 22 22 20 19 18 17 17 16 15 14 13 14 14 15 16 17 18 19 20 20 21 22 22 23 24 26 27 28 29 30
15 13 11 9 8 7 8 7 5 4 4 2 1 1 1 1 1 1 2 3 5 5 5 7 13 16 12 9 9 10 10 10 8 7 8 8 6 3 2 1 1 2 2 3 4 5 5 6 8 9 10 10 9 8 9 10 10 11 10 10 10 10 10 10 11 11 12 13 14 15 16 17 18 19 20 21 23 24 25 26 27 28 29 30 30
10 9 8 7 6 6 6 4 3 3 3 1 1 0 0 1 2 2 3 3 4 6 7 8 10 13 12 11 10 10 9 8 8 7 7 5 3 3 4 5 6 7 7 5 2 5 9 10 10 9 7 6 5 5 4 3 4 4 5 5 6 6 7 8 8 9 11 12 13 14 15 16 17 19 20 22 23 25 26 27 28 28 29 30 30
6 5 5 4 4 3 3 3 3 3 2 1 1 0 1 2 3 4 4 4 5 6 8 10 10 11 11 11 11 11 10 9 8 8 6 4 3 4 7 8 9 10 10 7 4 7 8 7 6 6 6 5 4 3 2 1 1 1 2 3 4 5 5 6 8 9 10 12 13 15 16 17 18 20 21 22 24 25 26 26 27 27 28 29 29
4 2 1 1 1 1 2 2 2 2 2 2 1 0 2 4 5 6 5 5 5 7 9 10 11 11 10 10 10 10 10 9 9 9 7 5 5 7 9 10 10 9 9 8 5 3 2 4 7 8 7 5 4 3 2 2 2 2 3 3 4 5 7 8 9 10 11 13 14 15 16 17 18 19 20 21 22 23 24 25 26 26 27 28 29
5 4 3 3 4 4 4 4 4 3 3 2 1 1 2 4 5 6 6 6 7 8 10 10 11 11 10 9 10 11 9 6 5 5 5 5 6 8 10 12 12 11 9 9 7 5 5 6 6 7 7 7 6 6 5 5 5 6 6 6 6 7 7 8 9 10 11 12 13 14 15 16 17 18 19 20 21 22 23 24 25 26 27 28 29
7 6 6 6 7 6 5 4 3 2 2 0 2 2 3 4 4 5 6 6 7 8 9 10 10 10 9 10 11 11 9 6 3 3 3 4 6 8 10 12 12 11 10 9 8 8 8 9 10 10 10 11 11 10 9 9 9 8 8 8 8 8 8 9 9 10 11 12 13 14 15 16 17 18 19 20 21 22 23 24 25 26 27 28 28
9 8 8 7 7 5 4 3 2 2 3 2 3 3 4 4 5 5 5 5 6 7 8 8 9 9 10 11 11 10 8 7 5 4 4 5 7 8 10 11 11 11 11 11 11 12 13 14 14 14 14 14 14 13 12 12 11 11 10 10 10 10 10 11 11 12 13 14 15 16 17 18 19 20 21 22 23 24 25 25 26 27 27 28 29
10 9 9 9 7 6 5 5 6 5 4 3 3 3 4 4 4 5 6 6 6 7 7 8 9 10 10 11 11 10 9 8 7 6 6 7 8 10 11 12 13 14 15 15 15 15 15 15 15 15 15 15 14 14 14 14 14 14 14 14 14 14 14 14 15 16 17 18 19 20 21 22 23 23 24 25 25 26 27 27 28 28 29 30 30
14 13 12 12 11 10 11 12 14 14 13 12 10 10 9 9 9 9 9 9 9 9 10 11 11 10 10 10 10 10 10 10 9 10 10 12 13 15 16 17 17 18 18 17 17 17 16 16 16 16 16 16 16 16 16 16 16 16 16 16 16 17 18 18 19 20 21 22 23 23 24 24 25 25 26 26 27 27 28 28 29 30 30 31 32
Wind_Direction
298 297 296 294 291 288 285 282 280 278 277 276 276 276 276 276 277 279 280 280 279 278 278 277 278 281 283 284 284 285 284 280 275 271 268 267 268 267 262 258 257 257 254 252 252 253 254 256 257 258 256 253 251 250 250 250 250 251 251 249 247 247 246 245 242 242 246 250 250 249 248 249 252 256 258 258 260 262 266 270 273 275 276 277 278
295 294 294 293 293 291 288 284 281 279 277 276 275 275 275 276 277 279 280 281 280 279 278 278 278 279 281 282 282 283 283 281 277 272 267 265 264 265 264 259 257 257 256 252 251 252 251 251 253 254 255 254 253 250 248 247 247 247 248 249 248 246 245 245 243 241 243 248 251 251 251 252 254 257 259 259 260 263 267 269 272 274 275 276 277
294 295 296 296 296 294 290 287 283 281 278 277 276 275 275 276 277 278 280 281 281 280 279 279 278 279 280 281 281 282 282 281 277 273 268 264 261 261 263 261 256 254 255 253 251 251 251 250 249 250 251 251 252 251 249 246 244 244 245 246 247 247 246 245 244 242 242 246 250 253 254 255 256 258 260 260 261 263 265 268 270 271 273 275 276
298 298 298 298 297 294 291 288 284 281 278 276 276 276 276 276 277 278 280 281 280 280 280 279 279 280 281 281 282 282 282 280 277 273 268 264 260 258 259 261 258 253 252 253 251 250 251 251 249 250 250 248 248 249 250 248 246 244 244 245 246 246 247 246 245 245 245 247 251 254 255 256 256 257 259 260 261 263 266 268 270 272 274 274 275
300 299 298 297 296 294 292 290 287 283 279 276 275 275 276 277 278 279 280 280 281 281 280 280 280 280 282 282 283 283 282 280 276 272 268 265 261 257 256 258 258 255 251 250 251 249 249 249 249 249 250 249 246 246 248 249 248 246 244 244 245 246 247 248 248 249 249 250 253 255 257 258 258 258 258 260 262 265 268 270 271 272 273 275 277
301 300 298 298 298 297 295 293 290 287 283 280 277 276 276 276 277 279 279 280 281 281 281 280 279 280 281 282 283 282 281 279 275 270 266 264 261 258 255 254 256 255 252 248 248 249 248 247 247 247 248 249 248 247 246 247 248 247 246 245 245 245 247 249 251 252 253 254 255 257 259 260 260 261 262 263 266 268 270 270 270 270 273 277 281
303 302 301 301 301 300 298 297 295 293 290 287 283 280 277 276 276 277 278 279 280 281 281 280 279 279 281 282 282 281 280 277 273 269 265 262 260 258 255 253 253 254 253 249 247 247 247 246 245 246 247 248 248 248 247 247 247 247 247 247 246 245 246 248 250 252 253 254 256 258 259 260 262 264 266 267 268 269 269 269 270 272 276 279 280
301 300 300 300 299 298 297 296 295 294 292 290 288 285 283 280 279 278 278 279 279 280 280 280 279 280 281 282 281 281 279 276 272 268 265 261 259 256 254 253 252 252 252 250 247 246 246 245 244 244 246 247 248 248 247 246 247 246 246 246 247 247 248 248 249 250 251 253 255 257 258 261 262 264 265 267 269 269 269 270 274 277 278 278 280
295 295 295 295 294 293 292 291 290 290 289 287 286 285 285 283 282 280 279 279 279 280 280 280 280 281 281 281 281 280 278 275 271 268 265 262 259 256 254 252 251 250 250 250 248 246 245 245 244 244 245 246 246 247 247 247 247 247 247 247 247 248 249 250 251 252 253 254 255 257 259 262 263 264 265 268 270 270 271 273 276 276 276 278 281
293 293 292 291 290 290 289 288 287 285 284 284 283 282 282 282 282 281 279 279 280 280 280 280 280 280 280 280 279 278 276 273 271 268 266 263 260 256 253 251 250 249 248 248 248 246 244 244 243 243 244 244 244 245 247 248 248 248 249 250 250 250 249 250 251 253 255 256 256 258 259 262 263 265 267 268 270 270 272 273 273 274 275 278 280
294 293 292 291 290 289 288 286 285 284 283 282 282 281 280 280 280 279 279 279 280 280 280 280 280 280 279 279 278 276 274 272 270 268 266 264 261 257 254 251 250 248 247 246 247 247 244 243 242 242 242 243 243 243 245 247 248 250 251 252 253 253 252 251 251 252 253 254 255 257 259 260 262 263 265 267 268 269 269 269 270 271 274 276 278
295 294 293 291 290 289 288 286 285 285 284 283 282 281 281 280 279 279 279 280 280 280 280 280 280 280 279 278 277 275 274 273 271 269 266 264 262 259 254 251 249 248 247 245 245 246 245 242 241 241 241 241 242 244 244 245 247 248 250 251 252 251 251 250 250 251 252 253 254 256 259 260 260 262 264 265 265 265 266 268 270 270 272 273 275
298 296 295 293 291 290 288 287 287 286 286 285 284 284 283 282 281 281 281 281 281 281 282 281 281 280 279 279 277 276 275 273 271 269 266 263 261 259 255 251 248 247 247 245 243 244 245 243 241 240 240 240 241 243 245 246 246 246 246 247 248 249 251 253 254 255 256 258 259 260 262 263 263 263 263 262 262 263 266 269 270 269 270 272 273
301 300 298 296 294 292 291 290 289 289 289 288 288 287 286 285 284 284 283 283 283 283 283 282 282 281 281 280 278 276 275 272 270 268 266 264 261 258 255 252 248 245 245 245 244 243 243 243 241 239 240 240 240 242 244 246 247 246 244 245 247 250 254 256 257 258 260 261 261 261 263 264 265 264 262 261 261 263 266 269 270 269 268 269 273
303 302 300 299 296 295 293 292 291 291 291 290 289 288 287 287 287 287 286 286 286 285 285 284 283 282 281 280 278 276 275 272 270 268 266 264 261 258 255 252 248 245 243 244 244 242 242 242 241 239 238 239 240 241 243 244 246 246 245 246 248 251 254 255 256 258 257 256 255 255 257 260 262 262 261 262 264 265 265 268 270 269 268 268 273
303 302 301 299 297 295 294 293 292 292 291 290 289 289 289 289 289 289 289 288 288 287 286 285 283 282 281 280 279 278 276 273 270 267 265 263 261 258 255 252 249 245 242 242 243 242 241 241 241 239 237 237 238 240 241 243 244 246 247 248 247 249 252 254 254 256 256 256 255 253 254 256 259 260 260 262 265 266 266 267 267 267 268 269 272
303 302 301 299 297 295 294 293 293 292 291 291 291 291 292 292 291 291 290 289 288 287 286 286 284 283 282 281 280 278 276 273 270 267 264 262 260 257 254 252 248 245 242 240 241 241 240 239 240 240 237 235 236 238 240 242 243 245 247 247 246 246 250 253 253 254 256 256 255 253 254 256 258 259 262 264 265 264 264 266 267 266 267 269 271
304 303 302 300 298 296 295 294 293 293 293 293 294 293 294 294 294 293 292 290 289 289 288 287 286 285 283 282 280 277 275 272 270 268 265 262 260 257 254 251 248 244 241 239 239 239 239 238 238 239 237 235 234 237 239 241 243 244 244 246 247 246 248 253 254 253 253 254 255 255 256 258 259 261 264 266 264 261 261 264 266 266 266 267 270
304 303 302 300 298 297 296 295 295 295 295 295 295 295 296 296 295 293 292 292 291 290 289 288 287 285 284 281 279 276 274 272 270 268 266 264 261 257 254 251 248 244 241 239 237 237 237 237 237 238 237 234 233 235 238 240 242 243 242 245 247 248 249 253 254 253 253 253 255 256 258 260 262 263 265 265 263 260 260 262 266 268 267 266 268
303 302 301 299 298 297 297 296 296 296 296 296 296 297 298 297 295 294 294 294 293 292 291 290 288 286 283 280 278 277 275 273 270 268 267 265 263 259 253 250 248 244 241 238 236 236 235 235 235 236 236 233 233 235 237 239 242 243 242 243 245 247 248 250 251 254 255 255 256 258 261 265 267 268 268 266 263 260 259 260 265 268 265 262 264
301 300 299 298 297 297 296 296 295 295 295 296 297 299 299 297 295 296 297 296 295 294 295 293 290 286 284 282 280 278 276 274 271 268 265 264 263 260 254 250 247 244 240 237 235 235 234 234 234 234 234 232 232 234 236 238 241 243 243 243 244 245 246 248 251 254 257 259 260 261 264 268 270 270 270 267 264 261 260 261 264 266 263 262 264
301 300 298 297 296 296 295 294 294 295 295 297 299 301 300 298 298 299 300 298 297 298 298 295 292 289 287 285 282 280 277 275 272 267 263 262 262 259 254 250 246 243 239 236 234 234 234 233 232 233 232 232 231 233 235 238 241 243 243 242 243 244 247 250 253 255 258 262 263 263 265 269 271 270 269 266 262 260 259 260 261 262 262 263 264
300 299 297 296 295 294 294 294 294 295 296 298 301 301 300 299 300 301 301 300 300 301 300 296 294 292 290 287 285 282 279 277 273 268 263 261 260 258 254 250 246 242 238 235 233 233 233 232 232 231 231 231 230 232 234 236 239 242 243 241 242 245 248 251 255 257 259 262 263 264 267 271 270 266 264 263 262 260 259 259 260 261 261 261 262
299 298 296 296 295 294 294 293 294 295 298 300 302 302 301 301 302 303 303 302 303 303 300 296 294 293 290 288 286 284 282 278 274 269 263 260 259 257 254 250 245 242 237 234 232 232 231 231 231 230 230 230 230 231 233 235 237 240 241 241 242 245 248 251 253 256 259 261 263 266 268 269 267 263 260 261 263 263 263 261 262 262 260 258 259
297 296 295 294 294 293 294 294 295 297 300 301 302 302 302 302 302 303 303 304 304 303 299 296 295 293 292 291 288 284 282 279 275 270 264 260 259 257 254 250 246 241 236 231 230 230 230 230 230 229 229 229 229 231 233 235 237 238 239 240 242 246 249 251 252 254 257 259 262 264 265 266 267 265 263 263 263 264 265 264 262 260 257 256 256
295 294 294 293 293 294 295 296 298 300 301 302 302 303 304 303 303 304 304 305 305 303 298 297 296 295 294 293 289 285 281 278 275 272 267 263 261 259 256 252 248 242 235 229 228 228 228 229 229 228 228 229 230 232 234 236 238 239 239 239 242 245 248 250 253 255 257 259 261 263 264 266 269 269 268 268 266 264 262 261 261 259 257 255 253
296 295 294 294 294 295 297 299 301 301 302 302 303 304 305 304 304 305 305 306 305 302 299 299 299 298 295 291 287 284 281 279 278 276 272 268 264 260 257 254 249 242 235 229 226 226 227 228 228 227 228 229 231 233 235 237 238 239 239 240 242 245 247 250 254 256 257 260 262 264 265 266 268 268 269 270 269 266 263 262 261 259 256 253 252
298 297 296 295 296 297 300 302 302 302 302 303 304 305 304 304 305 305 306 306 306 303 301 300 301 301 297 289 284 282 281 281 282 279 274 268 262 257 254 252 248 241 235 230 226 225 226 227 226 226 227 229 232 235 238 239 239 238 238 239 241 244 246 249 252 254 257 260 262 263 264 265 267 267 267 267 266 263 261 259 258 257 256 253 251
299 298 297 296 296 298 300 302 303 303 303 304 305 304 303 303 305 306 307 307 306 303 302 302 304 304 299 288 282 282 281 281 280 276 270 264 256 251 250 248 244 240 235 230 226 225 225 226 226 226 227 229 232 236 240 240 239 237 237 238 240 243 246 248 251 254 257 258 260 262 264 264 265 267 269 269 266 263 259 254 252 253 252 249 249
299 298 297 297 297 298 299 301 301 302 302 304 305 304 304 303 304 305 306 306 305 304 303 304 305 305 299 289 283 282 282 282 278 269 262 258 253 250 248 245 240 237 234 230 226 224 224 225 226 227 227 227 228 232 237 239 238 237 237 239 241 244 246 248 251 254 257 258 258 259 261 262 262 265 268 271 271 270 266 259 254 253 252 248 246
299 298 297 297 297 297 297 298 299 300 301 303 303 303 303 304 305 305 306 307 307 307 306 307 307 305 299 291 286 283 282 281 276 265 258 255 253 250 248 244 238 233 230 228 226 225 225 226 227 227 227 226 227 232 239 240 239 238 239 240 243 246 248 250 251 253 255 256 257 258 260 261 262 263 265 267 269 271 270 266 262 262 260 254 245
298 297 296 295 295 295 295 295 296 297 300 301 302 302 303 305 306 307 310 312 311 310 310 311 309 303 295 291 287 282 278 275 271 266 261 256 253 250 247 245 241 236 231 227 226 227 228 229 229 229 229 228 229 235 240 240 238 238 238 239 241 244 248 251 254 256 256 256 256 258 260 262 263 264 264 265 266 266 266 267 269 273 271 263 250
297 296 294 293 292 292 292 292 293 295 298 299 299 302 304 303 303 307 311 313 312 311 313 315 312 301 291 287 285 280 275 270 266 264 260 256 253 250 245 242 241 239 235 232 230 228 229 231 230 230 231 231 232 237 242 241 239 239 240 240 241 243 246 249 253 256 258 259 260 262 263 264 264 265 264 263 264 266 266 267 271 277 277 267 256
298 296 295 293 291 290 290 290 291 293 295 296 299 303 304 303 304 306 309 311 313 316 318 317 312 302 290 283 278 276 274 270 267 264 261 259 255 249 244 240 238 236 235 234 231 228 228 230 229 230 232 233 234 239 243 244 242 242 242 243 243 243 245 247 249 252 257 261 264 265 266 266 266 266 266 266 266 268 270 269 270 273 274 269 264
301 301 300 298 295 292 289 289 289 290 291 295 299 301 303 304 305 306 309 311 315 320 320 313 304 296 290 281 273 270 272 273 272 268 263 260 255 246 240 238 236 234 232 231 229 228 228 230 229 230 232 234 235 238 241 242 242 241 243 245 246 246 248 249 251 253 257 261 264 265 266 268 268 268 268 269 270 270 270 269 268 267 266 266 265
306 307 308 307 304 298 293 289 286 286 289 293 295 297 301 303 302 304 309 312 314 320 322 313 297 284 281 277 269 263 260 265 270 268 261 256 251 244 239 236 236 233 229 227 229 231 230 230 229 229 231 233 234 236 238 238 238 239 243 246 249 250 251 252 253 255 257 260 263 266 267 270 274 275 275 274 273 272 270 268 265 263 261 261 262
308 310 312 314 313 308 300 292 286 285 288 290 290 295 304 301 297 302 309 311 316 329 338 339 330 307 276 270 274 269 257 259 267 267 259 249 239 234 234 236 238 235 228 225 227 229 229 229 228 227 229 233 235 236 237 237 238 239 242 246 250 252 254 255 255 255 256 259 263 266 268 271 273 273 271 270 267 265 264 263 262 262 262 262 263
310 310 313 317 318 315 309 300 292 289 288 286 286 291 295 289 291 301 307 310 327 351 5 11 11 5 347 318 307 294 273 266 267 268 262 247 235 231 231 233 239 239 233 230 230 229 229 231 229 226 227 230 232 235 237 238 240 243 246 249 251 253 255 257 257 256 256 258 259 260 260 261 261 261 261 261 260 260 261 261 262 263 264 264 264
311 310 312 315 316 316 313 306 299 293 287 284 284 286 284 283 290 301 310 320 343 8 19 20 22 26 21 6 351 319 277 268 265 264 258 239 230 235 232 232 240 244 239 236 236 233 231 229 227 226 227 227 229 233 237 240 244 247 251 254 256 256 257 259 258 256 254 254 254 253 253 253 254 256 258 260 261 262 262 261 261 262 262 263 264
310 309 309 309 310 312 309 304 299 291 280 278 281 285 292 298 300 309 325 341 357 17 26 23 30 44 40 21 15 22 18 325 273 264 259 244 241 254 249 240 246 254 251 244 239 235 234 232 229 228 228 228 230 235 239 245 251 252 251 250 250 248 247 246 246 245 244 246 248 250 253 256 259 262 263 263 262 262 261 260 260 261 262 263 266
307 304 302 302 303 305 303 298 291 275 262 261 259 256 316 325 315 323 352 0 1 14 28 25 32 47 49 30 24 30 35 44 61 39 351 272 239 252 261 254 254 265 273 272 260 246 242 242 240 237 234 233 235 237 238 242 247 247 241 236 233 232 232 233 236 239 243 248 252 256 260 264 266 267 267 266 266 265 265 264 265 266 268 271 273
303 299 295 293 294 296 297 293 280 256 244 241 191 139 350 317 307 334 16 11 2 5 25 37 40 45 44 33 32 32 24 16 27 34 34 42 66 247 275 269 266 266 268 273 275 267 254 244 237 232 228 224 222 221 222 225 227 227 225 226 228 230 234 239 245 250 254 258 262 265 266 268 269 270 271 272 272 273 274 275 276 277 278 280 281
300 294 290 286 286 290 292 288 271 240 221 211 149 90 343 278 256 35 50 39 22 16 25 46 48 45 39 32 34 32 23 18 20 25 29 34 36 37 44 46 23 1 329 295 279 258 227 190 169 169 178 183 182 182 189 196 200 204 212 223 233 240 248 254 259 264 267 269 271 273 273 274 275 276 276 277 278 279 279 280 281 282 283 284 285
301 293 283 275 277 289 293 280 248 210 188 171 137 83 91 206 179 128 91 76 52 36 34 45 51 48 44 43 45 44 41 40 40 38 39 44 55 72 66 55 47 47 45 43 92 137 131 128 130 132 128 120 112 112 124 146 163 181 201 220 235 247 255 263 269 273 276 278 279 280 280 280 279 279 279 279 280 280 281 282 284 285 286 287 288
308 295 281 272 276 288 280 237 209 191 158 87 37 112 142 137 137 126 109 93 74 54 45 45 47 45 42 44 48 51 53 54 55 58 66 79 84 70 58 52 55 61 62 64 107 134 124 103 80 62 56 61 75 80 81 99 157 201 222 236 250 258 263 269 274 276 277 279 280 280 280 281 280 280 280 281 282 283 284 285 286 287 288 288 288
343 333 307 306 305 206 183 167 147 121 88 65 42 115 123 111 112 118 116 101 82 68 58 51 49 47 42 39 41 45 49 51 49 47 43 35 31 42 48 46 46 51 56 58 69 95 70 21 18 22 26 32 40 39 24 3 339 323 307 295 290 289 288 288 288 288 288 287 287 287 287 287 287 287 287 287 287 288 288 288 289 289 289 289 289
49 69 85 91 103 120 131 124 104 67 41 50 81 145 143 123 113 113 114 105 87 75 65 56 51 50 47 43 43 48 57 64 48 17 1 359 6 13 18 19 19 25 39 48 47 35 17 9 11 13 12 11 12 13 10 4 356 348 340 334 327 319 313 311 308 305 303 302 301 300 298 297 295 294 293 292 292 292 292 292 292 292 292 293 294
62 75 84 96 107 111 107 103 91 32 355 5 176 196 191 168 142 123 115 105 88 76 67 58 51 48 42 37 38 42 48 56 45 352 331 342 356 4 15 25 30 35 44 49 41 29 21 19 17 14 12 10 10 11 11 11 9 6 2 357 350 343 336 329 324 319 316 313 310 307 304 303 301 300 300 299 299 299 299 299 299 300 300 301 300
67 73 71 75 84 82 67 65 55 352 308 248 209 202 190 172 155 139 126 110 86 73 65 57 50 45 38 32 32 35 39 43 42 26 5 2 7 18 34 42 42 37 35 33 28 22 20 20 20 20 21 22 23 23 22 20 18 14 10 4 357 351 345 339 334 329 325 321 319 316 314 314 313 312 312 311 310 309 308 307 306 305 304 302 301
62 65 63 59 56 54 60 76 84 80 83 107 131 142 148 151 146 136 125 107 81 65 59 56 54 50 43 39 40 46 52 56 56 52 44 36 32 32 33 34 32 30 29 28 27 26 25 25 25 25 24 23 21 19 16 13 9 4 1 357 352 348 343 338 334 331 328 325 324 322 321 320 319 318 317 315 313 311 309 308 306 305 303 302 301
65 68 70 71 72 74 78 83 86 88 89 92 95 99 101 101 101 103 101 93 79 68 66 68 68 64 59 56 56 59 60 60 57 52 48 44 41 38 37 36 35 35 33 32 31 30 29 27 25 22 20 17 14 10 7 4 0 356 353 349 346 342 340 337 335 333 332 330 329 327 326 324 322 319 317 315 313 310 309 307 306 305 304 303 302
Height
5851 5849 5848 5846 5845 5843 5842 5841 5839 5839 5838 5838 5837 5837 5837 5836 5836 5835 5834 5833 5833 5832 5831 5831 5830 5829 5827 5827 5826 5826 5825 5825 5824 5825 5825 5825 5826 5827 5827 5828 5830 5832 5833 5835 5836 5837 5839 5840 5841 5843 5843 5843 5844 5845 5847 5848 5849 5850 5851 5852 5853 5854 5855 5856 5858 5859 5858 5858 5858 5858 5859 5861 5862 5862 5863 5863 5863 5863 5864 5864 5864 5863 5863 5863 5862
5847 5846 5844 5843 5841 5839 5838 5836 5835 5834 5833 5833 5832 5832 5831 5831 5830 5829 5829 5828 5827 5826 5826 5825 5825 5824 5823 5822 5821 5821 5820 5819 5819 5819 5819 5820 5821 5822 5822 5823 5825 5827 5828 5830 5831 5832 5833 5834 5836 5837 5838 5839 5840 5841 5842 5843 5844 5845 5847 5848 5849 5850 5851 5852 5853 5855 5855 5854 5854 5855 5856 5858 5859 5859 5859 5860 5860 5860 5860 5860 5860 5859 5859 5859 5859
5843 5841 5840 5838 5836 5835 5833 5831 5830 5829 5828 5828 5827 5826 5825 5825 5824 5823 5823 5822 5821 5821 5820 5820 5819 5819 5818 5817 5816 5815 5815 5814 5814 5814 5814 5814 5815 5817 5817 5818 5820 5821 5822 5824 5826 5826 5827 5829 5831 5831 5832 5833 5835 5836 5837 5838 5839 5840 5842 5843 5845 5846 5847 5847 5849 5851 5852 5850 5850 5852 5853 5855 5856 5856 5856 5856 5857 5857 5857 5857 5856 5856 5856 5856 5855
5838 5837 5835 5833 5832 5830 5828 5827 5826 5825 5824 5823 5822 5821 5820 5819 5818 5818 5817 5816 5816 5815 5814 5814 5813 5813 5812 5812 5811 5810 5810 5809 5808 5808 5808 5808 5809 5811 5812 5812 5814 5815 5816 5818 5820 5821 5822 5824 5826 5827 5826 5828 5830 5831 5833 5834 5834 5835 5837 5839 5840 5842 5842 5843 5845 5847 5848 5848 5848 5849 5850 5851 5852 5853 5853 5853 5853 5853 5853 5853 5853 5853 5852 5852 5852
5833 5832 5830 5829 5827 5826 5824 5822 5821 5820 5819 5818 5817 5816 5815 5814 5813 5812 5811 5811 5810 5809 5809 5808 5807 5806 5806 5805 5805 5804 5804 5803 5803 5802 5802 5802 5803 5805 5806 5807 5808 5809 5811 5812 5813 5815 5817 5819 5821 5822 5822 5823 5825 5826 5828 5829 5830 5831 5832 5834 5836 5837 5838 5839 5841 5843 5844 5846 5846 5847 5848 5849 5849 5849 5849 5849 5849 5849 5849 5849 5850 5849 5848 5848 5848
5827 5826 5824 5823 5821 5820 5818 5817 5815 5814 5813 5812 5811 5811 5809 5808 5807 5806 5805 5805 5804 5804 5803 5802 5801 5800 5800 5799 5799 5798 5798 5797 5797 5796 5796 5796 5797 5798 5799 5800 5802 5803 5804 5806 5807 5808 5811 5813 5815 5816 5817 5818 5820 5822 5823 5824 5825 5827 5828 5830 5831 5832 5833 5835 5837 5839 5841 5843 5843 5844 5846 5846 5847 5847 5846 5846 5846 5846 5846 5846 5846 5845 5844 5845 5845
5821 5819 5817 5816 5814 5813 5811 5810 5808 5807 5806 5805 5804 5803 5803 5802 5801 5800 5799 5799 5798 5797 5796 5795 5795 5794 5793 5793 5792 5792 5791 5791 5790 5789 5789 5789 5790 5791 5792 5793 5795 5796 5798 5799 5800 5802 5804 5807 5809 5810 5812 5814 5816 5817 5818 5820 5821 5822 5824 5825 5826 5827 5829 5831 5833 5835 5837 5839 5840 5841 5842 5843 5843 5843 5843 5843 5843 5843 5842 5841 5841 5842 5842 5842 5842
5816 5814 5811 5810 5808 5806 5804 5803 5801 5800 5799 5798 5797 5796 5795 5795 5794 5794 5793 5792 5791 5790 5789 5788 5788 5787 5787 5786 5785 5784 5784 5784 5784 5783 5782 5783 5784 5784 5785 5786 5788 5790 5791 5792 5793 5795 5798 5801 5803 5805 5807 5809 5811 5812 5813 5815 5816 5818 5820 5821 5822 5823 5825 5827 5829 5830 5832 5834 5835 5837 5837 5838 5839 5839 5839 5839 5840 5839 5838 5838 5838 5839 5838 5838 5838
5813 5810 5808 5806 5804 5802 5800 5798 5796 5795 5793 5792 5791 5789 5788 5788 5787 5787 5786 5785 5784 5783 5782 5782 5781 5781 5780 5779 5778 5777 5777 5777 5777 5776 5775 5775 5776 5777 5778 5779 5781 5782 5784 5786 5787 5789 5792 5794 5797 5799 5801 5803 5805 5807 5808 5809 5811 5814 5816 5817 5818 5819 5821 5823 5825 5826 5828 5829 5831 5832 5832 5833 5834 5835 5835 5836 5836 5835 5834 5834 5835 5834 5834 5834 5834
5809 5806 5804 5801 5799 5797 5795 5793 5791 5789 5788 5786 5785 5783 5782 5781 5780 5780 5779 5778 5777 5776 5775 5775 5774 5773 5772 5771 5771 5770 5770 5770 5769 5768 5767 5768 5769 5770 5771 5773 5774 5775 5777 5779 5781 5783 5785 5788 5791 5794 5796 5797 5800 5802 5804 5805 5807 5809 5811 5812 5814 5815 5817 5818 5819 5821 5823 5825 5826 5827 5828 5829 5830 5831 5831 5831 5831 5830 5830 5830 5830 5829 5829 5830 5830
5803 5800 5798 5795 5793 5791 5789 5787 5785 5783 5782 5780 5779 5777 5776 5775 5774 5773 5772 5771 5770 5769 5768 5767 5766 5765 5764 5764 5763 5762 5762 5762 5761 5760 5760 5760 5761 5763 5764 5766 5767 5768 5770 5773 5775 5777 5779 5781 5785 5787 5790 5792 5795 5797 5799 5800 5803 5805 5807 5808 5809 5811 5812 5813 5814 5815 5817 5819 5820 5822 5823 5824 5825 5825 5825 5825 5825 5825 5825 5824 5824 5825 5825 5825 5825
5796 5794 5791 5789 5787 5785 5782 5780 5779 5777 5776 5774 5773 5772 5770 5769 5768 5767 5765 5764 5763 5762 5761 5759 5758 5757 5756 5756 5756 5755 5755 5755 5753 5752 5752 5752 5752 5754 5757 5759 5760 5762 5764 5766 5769 5770 5772 5775 5778 5781 5784 5787 5789 5791 5792 5795 5798 5801 5802 5802 5803 5804 5805 5807 5809 5810 5811 5813 5815 5817 5818 5819 5819 5819 5819 5819 5818 5818 5819 5819 5820 5820 5820 5819 5819
5790 5787 5785 5783 5781 5779 5776 5775 5773 5771 5770 5768 5767 5766 5764 5763 5762 5760 5759 5757 5756 5755 5754 5752 5751 5750 5748 5748 5748 5747 5747 5747 5745 5744 5744 5744 5744 5745 5748 5751 5753 5755 5757 5759 5762 5764 5766 5769 5771 5775 5778 5781 5783 5785 5787 5790 5793 5794 5795 5795 5795 5798 5800 5803 5805 5806 5808 5810 5811 5813 5815 5814 5814 5814 5814 5812 5811 5812 5814 5815 5816 5815 5815 5815 5814
5783 5781 5779 5777 5775 5772 5770 5769 5767 5766 5764 5763 5761 5760 5758 5757 5755 5753 5752 5751 5749 5748 5747 5745 5744 5742 5740 5740 5739 5740 5740 5739 5737 5736 5736 5736 5736 5737 5740 5743 5746 5748 5750 5752 5755 5757 5760 5762 5765 5768 5771 5774 5777 5780 5783 5785 5786 5786 5786 5788 5791 5795 5797 5799 5800 5802 5804 5805 5807 5809 5809 5808 5809 5809 5807 5805 5806 5808 5810 5810 5810 5810 5810 5810 5809
5777 5775 5773 5771 5769 5767 5765 5763 5762 5760 5758 5757 5755 5754 5752 5750 5749 5747 5745 5744 5742 5741 5739 5738 5736 5735 5733 5732 5731 5732 5732 5731 5729 5728 5728 5728 5728 5729 5732 5736 5739 5741 5743 5745 5748 5751 5754 5756 5759 5762 5764 5767 5771 5775 5777 5778 5777 5777 5779 5784 5790 5792 5792 5793 5795 5796 5797 5798 5800 5801 5802 5801 5802 5803 5802 5801 5802 5804 5805 5805 5804 5804 5804 5805 5805
5771 5769 5768 5766 5763 5761 5760 5758 5756 5755 5753 5751 5749 5748 5746 5744 5742 5740 5739 5737 5736 5734 5732 5731 5729 5727 5726 5724 5723 5724 5724 5723 5722 5721 5721 5720 5720 5722 5725 5728 5731 5735 5737 5739 5741 5744 5747 5750 5753 5755 5757 5761 5766 5768 5769 5768 5768 5770 5775 5781 5785 5786 5786 5788 5790 5790 5791 5793 5794 5795 5794 5794 5795 5796 5796 5797 5797 5799 5800 5800 5799 5799 5799 5799 5799
5766 5764 5762 5760 5758 5756 5754 5752 5751 5749 5747 5745 5743 5742 5740 5738 5736 5734 5732 5731 5729 5726 5725 5723 5722 5720 5719 5717 5716 5716 5716 5716 5714 5714 5714 5713 5713 5715 5718 5721 5724 5728 5730 5732 5734 5737 5740 5743 5746 5748 5751 5755 5759 5761 5760 5759 5761 5766 5772 5776 5778 5780 5782 5783 5784 5785 5786 5786 5787 5788 5788 5789 5789 5789 5790 5792 5793 5794 5794 5794 5794 5794 5793 5793 5793
5760 5758 5756 5754 5752 5749 5747 5746 5744 5743 5741 5739 5738 5736 5734 5732 5730 5727 5725 5723 5722 5720 5718 5716 5715 5713 5711 5710 5709 5708 5709 5709 5708 5707 5707 5706 5706 5708 5711 5714 5717 5721 5724 5726 5727 5730 5733 5736 5739 5741 5745 5750 5753 5753 5752 5752 5754 5760 5767 5770 5771 5774 5778 5778 5778 5778 5779 5778 5779 5781 5782 5782 5783 5784 5784 5787 5787 5787 5787 5788 5788 5787 5786 5787 5788
5755 5752 5750 5748 5746 5743 5741 5740 5738 5737 5735 5734 5732 5730 5729 5726 5724 5721 5719 5717 5715 5714 5711 5710 5708 5707 5704 5703 5702 5701 5702 5703 5702 5701 5701 5700 5699 5701 5704 5707 5710 5714 5717 5719 5721 5723 5726 5729 5732 5735 5739 5743 5745 5744 5745 5746 5748 5754 5761 5764 5765 5770 5774 5772 5770 5771 5771 5772 5773 5774 5775 5776 5777 5778 5778 5779 5780 5780 5781 5781 5782 5781 5782 5782 5782
5750 5747 5745 5742 5740 5738 5736 5734 5733 5731 5730 5728 5727 5725 5723 5720 5718 5715 5713 5711 5709 5707 5705 5703 5702 5701 5698 5697 5696 5695 5695 5696 5695 5695 5695 5694 5693 5695 5697 5700 5704 5707 5710 5712 5714 5717 5719 5722 5725 5729 5732 5736 5737 5737 5738 5740 5742 5748 5754 5757 5761 5766 5767 5764 5764 5765 5765 5765 5767 5769 5770 5771 5771 5771 5771 5771 5773 5775 5775 5775 5776 5776 5776 5776 5775
5744 5742 5739 5737 5735 5733 5731 5729 5727 5726 5725 5723 5721 5719 5717 5714 5712 5710 5708 5706 5703 5702 5700 5697 5696 5695 5693 5691 5690 5689 5688 5688 5688 5688 5688 5688 5688 5688 5691 5694 5697 5700 5703 5705 5708 5710 5713 5716 5719 5722 5725 5728 5729 5730 5732 5735 5737 5741 5748 5753 5757 5759 5758 5757 5759 5760 5760 5760 5762 5764 5765 5765 5765 5765 5763 5763 5765 5768 5769 5769 5769 5770 5770 5770 5770
5739 5737 5734 5732 5730 5728 5726 5724 5722 5721 5720 5718 5716 5714 5711 5708 5706 5704 5702 5700 5698 5696 5694 5692 5690 5690 5688 5686 5684 5683 5682 5682 5682 5682 5682 5682 5682 5683 5685 5688 5690 5692 5696 5699 5702 5705 5707 5710 5712 5715 5718 5720 5722 5724 5727 5730 5732 5736 5743 5749 5751 5750 5750 5753 5755 5756 5755 5756 5758 5759 5759 5760 5760 5759 5758 5758 5760 5761 5763 5763 5763 5763 5764 5764 5764
5733 5731 5729 5727 5725 5723 5721 5719 5718 5716 5715 5713 5711 5709 5706 5703 5701 5699 5697 5694 5693 5691 5689 5687 5685 5685 5683 5681 5679 5678 5677 5676 5676 5676 5676 5676 5677 5678 5680 5682 5684 5686 5689 5693 5696 5699 5701 5703 5706 5709 5712 5714 5716 5718 5722 5725 5727 5731 5737 5743 5743 5743 5746 5750 5750 5749 5750 5751 5751 5752 5753 5754 5754 5754 5754 5754 5754 5755 5756 5757 5757 5757 5757 5758 5758
5728 5726 5724 5721 5720 5718 5716 5715 5713 5711 5710 5707 5705 5703 5701 5699 5697 5694 5692 5689 5688 5686 5684 5682 5680 5679 5678 5676 5674 5673 5672 5671 5671 5671 5671 5672 5672 5673 5675 5677 5678 5680 5684 5687 5690 5692 5695 5697 5700 5703 5705 5707 5710 5713 5716 5720 5723 5726 5732 5736 5737 5739 5742 5745 5744 5744 5745 5745 5746 5747 5747 5747 5747 5749 5749 5749 5748 5748 5749 5749 5750 5751 5751 5751 5752
5723 5721 5718 5716 5714 5713 5712 5710 5708 5707 5704 5702 5700 5698 5696 5694 5692 5690 5687 5685 5683 5681 5679 5677 5675 5674 5672 5671 5669 5668 5667 5667 5667 5666 5666 5667 5668 5669 5670 5672 5673 5675 5678 5682 5684 5686 5689 5692 5694 5697 5699 5702 5705 5708 5712 5716 5719 5722 5726 5730 5731 5733 5736 5737 5738 5739 5739 5740 5742 5743 5742 5741 5742 5743 5744 5744 5744 5743 5743 5743 5745 5745 5745 5745 5746
5717 5716 5713 5711 5710 5708 5707 5705 5704 5702 5699 5697 5695 5693 5691 5690 5688 5686 5683 5681 5679 5677 5675 5673 5671 5669 5668 5666 5665 5664 5663 5662 5662 5662 5662 5663 5664 5665 5666 5667 5669 5670 5673 5676 5678 5680 5683 5686 5688 5691 5694 5697 5701 5705 5709 5712 5715 5718 5721 5724 5725 5727 5729 5730 5732 5733 5734 5734 5735 5736 5737 5737 5737 5738 5738 5738 5738 5739 5739 5739 5740 5739 5739 5739 5739
5712 5711 5709 5707 5705 5703 5702 5701 5699 5697 5694 5692 5690 5689 5686 5685 5684 5682 5679 5677 5675 5673 5671 5669 5667 5665 5663 5662 5661 5661 5660 5659 5659 5659 5659 5660 5661 5661 5662 5664 5665 5667 5669 5672 5674 5676 5678 5681 5684 5687 5691 5694 5698 5702 5706 5709 5711 5714 5716 5718 5720 5721 5723 5725 5727 5728 5728 5729 5730 5730 5731 5732 5733 5733 5733 5733 5733 5733 5733 5734 5734 5733 5733 5733 5731
5707 5706 5704 5702 5700 5699 5697 5696 5694 5692 5690 5688 5686 5684 5682 5680 5679 5677 5675 5673 5671 5669 5667 5665 5664 5662 5660 5658 5658 5658 5657 5656 5656 5656 5656 5657 5657 5658 5659 5661 5662 5664 5666 5668 5670 5672 5675 5677 5680 5684 5687 5691 5695 5699 5702 5705 5708 5709 5711 5713 5715 5716 5718 5720 5722 5723 5723 5724 5725 5725 5726 5727 5728 5728 5728 5728 5728 5727 5727 5727 5727 5726 5725 5724 5723
5703 5701 5699 5697 5696 5694 5693 5691 5689 5688 5686 5684 5682 5680 5678 5677 5675 5673 5671 5668 5667 5666 5664 5662 5660 5658 5656 5655 5655 5654 5654 5653 5654 5654 5654 5654 5655 5655 5656 5658 5660 5662 5664 5666 5667 5670 5672 5675 5678 5681 5685 5689 5693 5696 5698 5700 5702 5704 5706 5708 5710 5712 5714 5716 5717 5718 5719 5720 5721 5721 5722 5723 5723 5723 5722 5721 5720 5720 5721 5721 5720 5718 5715 5713 5714
5698 5696 5694 5692 5691 5689 5688 5686 5685 5684 5682 5681 5679 5676 5674 5672 5671 5670 5668 5666 5664 5662 5661 5659 5657 5655 5653 5652 5652 5652 5651 5651 5651 5651 5651 5652 5653 5653 5654 5655 5658 5660 5662 5664 5665 5668 5670 5673 5676 5679 5682 5686 5689 5691 5693 5694 5696 5699 5702 5704 5706 5707 5709 5711 5712 5713 5714 5715 5715 5716 5717 5718 5717 5717 5716 5715 5714 5716 5716 5715 5715 5714 5711 5709 5709
5693 5691 5689 5687 5686 5684 5683 5682 5680 5679 5678 5677 5675 5673 5671 5668 5666 5666 5665 5663 5661 5659 5658 5656 5654 5652 5651 5650 5650 5649 5649 5649 5649 5649 5650 5651 5651 5652 5653 5654 5656 5658 5660 5662 5664 5666 5669 5671 5673 5676 5679 5682 5684 5686 5688 5690 5692 5695 5698 5700 5702 5703 5705 5706 5707 5708 5709 5710 5710 5711 5712 5712 5712 5712 5712 5711 5711 5712 5712 5712 5712 5711 5709 5708 5706
5688 5686 5684 5682 5681 5679 5678 5677 5676 5675 5674 5672 5671 5670 5668 5666 5663 5661 5660 5660 5658 5656 5655 5653 5651 5650 5649 5648 5647 5647 5647 5647 5647 5648 5649 5649 5650 5650 5651 5652 5654 5656 5658 5659 5661 5664 5667 5669 5671 5673 5676 5678 5680 5682 5683 5686 5688 5691 5693 5696 5697 5699 5699 5700 5701 5702 5703 5704 5705 5706 5706 5707 5707 5707 5707 5707 5707 5707 5708 5708 5708 5709 5708 5706 5703
5682 5680 5678 5677 5675 5674 5673 5672 5671 5671 5670 5669 5668 5667 5666 5664 5662 5659 5658 5657 5655 5654 5653 5651 5649 5648 5647 5646 5646 5645 5645 5645 5645 5646 5648 5648 5648 5649 5650 5651 5653 5655 5656 5657 5659 5661 5664 5666 5669 5671 5673 5675 5677 5678 5680 5682 5685 5687 5689 5691 5693 5694 5695 5695 5696 5697 5698 5698 5699 5700 5701 5701 5701 5701 5701 5701 5702 5702 5703 5703 5703 5703 5703 5702 5701
5676 5674 5673 5671 5670 5668 5667 5667 5667 5666 5666 5665 5665 5664 5663 5661 5660 5658 5657 5655 5653 5652 5651 5649 5647 5646 5645 5644 5644 5644 5644 5644 5644 5645 5646 5646 5647 5647 5648 5650 5651 5653 5655 5656 5657 5659 5661 5663 5666 5668 5670 5673 5675 5676 5677 5680 5682 5683 5685 5687 5688 5689 5691 5691 5692 5693 5693 5693 5694 5694 5694 5695 5695 5695 5696 5696 5697 5697 5697 5697 5697 5697 5697 5697 5697
5672 5670 5668 5666 5665 5663 5662 5662 5662 5662 5662 5662 5662 5662 5660 5659 5657 5657 5656 5654 5652 5650 5648 5646 5645 5644 5643 5643 5642 5642 5642 5643 5643 5644 5644 5644 5645 5646 5647 5648 5649 5651 5653 5655 5656 5657 5659 5661 5663 5666 5668 5670 5672 5673 5675 5677 5679 5680 5681 5682 5683 5685 5686 5687 5688 5689 5689 5689 5689 5689 5689 5689 5689 5690 5691 5691 5691 5691 5690 5690 5690 5690 5690 5689 5689
5668 5666 5664 5662 5660 5659 5658 5658 5658 5658 5659 5659 5659 5659 5658 5657 5656 5655 5654 5652 5651 5649 5647 5645 5643 5643 5642 5641 5641 5640 5640 5641 5642 5642 5643 5643 5644 5645 5646 5647 5648 5649 5651 5653 5654 5655 5657 5659 5660 5663 5665 5667 5668 5669 5671 5673 5674 5676 5677 5677 5679 5680 5682 5683 5683 5684 5685 5685 5685 5685 5685 5685 5684 5685 5685 5685 5684 5684 5683 5683 5683 5683 5682 5682 5681
5665 5663 5661 5659 5658 5656 5655 5655 5655 5655 5656 5656 5656 5656 5656 5656 5654 5653 5652 5651 5650 5648 5646 5644 5643 5642 5641 5640 5639 5639 5639 5640 5640 5641 5641 5642 5644 5644 5645 5646 5646 5647 5649 5651 5652 5654 5655 5656 5658 5661 5662 5663 5665 5666 5667 5669 5670 5672 5673 5674 5675 5676 5677 5678 5679 5680 5680 5680 5680 5681 5681 5680 5679 5679 5678 5678 5677 5677 5677 5676 5676 5676 5676 5676 5676
5662 5660 5659 5657 5656 5654 5653 5653 5653 5653 5653 5653 5653 5654 5654 5653 5652 5651 5651 5650 5649 5647 5646 5644 5643 5642 5641 5640 5639 5639 5639 5639 5640 5641 5641 5642 5643 5644 5644 5645 5646 5647 5648 5649 5650 5651 5653 5654 5656 5658 5659 5660 5662 5663 5664 5666 5667 5668 5669 5671 5672 5673 5673 5674 5674 5675 5675 5675 5675 5675 5674 5674 5673 5672 5672 5672 5672 5672 5671 5671 5671 5671 5671 5671 5672
5659 5658 5656 5655 5654 5653 5652 5652 5651 5652 5651 5651 5651 5652 5652 5651 5651 5650 5650 5649 5648 5647 5646 5645 5643 5642 5641 5641 5640 5639 5639 5639 5640 5641 5641 5642 5643 5643 5644 5645 5646 5646 5647 5648 5648 5649 5651 5651 5653 5655 5656 5657 5659 5661 5662 5663 5665 5665 5666 5667 5668 5669 5670 5670 5669 5670 5670 5669 5669 5669 5668 5668 5668 5668 5667 5667 5667 5667 5667 5667 5667 5667 5667 5668 5668
5657 5655 5654 5653 5653 5652 5651 5650 5650 5650 5650 5649 5650 5650 5650 5650 5650 5649 5649 5648 5648 5647 5646 5645 5644 5643 5642 5641 5640 5640 5640 5639 5640 5641 5641 5642 5643 5644 5644 5645 5646 5646 5647 5647 5647 5648 5649 5650 5651 5652 5653 5655 5657 5659 5660 5661 5662 5662 5662 5663 5663 5664 5665 5665 5664 5664 5664 5664 5664 5664 5664 5665 5665 5664 5664 5664 5664 5664 5663 5663 5664 5664 5664 5664 5664
5654 5653 5652 5651 5651 5650 5650 5649 5649 5648 5648 5648 5648 5649 5649 5649 5649 5648 5648 5648 5647 5646 5646 5645 5644 5643 5642 5642 5641 5641 5641 5640 5641 5641 5642 5643 5643 5644 5644 5645 5645 5646 5646 5646 5647 5647 5648 5649 5650 5651 5652 5653 5654 5656 5657 5658 5658 5658 5658 5658 5659 5659 5660 5660 5660 5660 5661 5661 5661 5662 5662 5662 5662 5662 5661 5661 5661 5661 5661 5661 5661 5661 5660 5660 5660
5651 5651 5650 5649 5649 5649 5648 5648 5647 5647 5647 5648 5648 5648 5648 5648 5648 5648 5648 5647 5647 5647 5646 5646 5645 5644 5643 5643 5642 5642 5642 5642 5642 5643 5643 5643 5643 5644 5644 5645 5645 5645 5645 5646 5646 5647 5648 5648 5649 5649 5650 5651 5651 5652 5653 5654 5655 5655 5656 5656 5656 5657 5657 5658 5658 5658 5659 5659 5659 5659 5659 5659 5659 5659 5659 5659 5658 5658 5658 5658 5657 5657 5656 5656 5655
5649 5648 5648 5648 5647 5647 5647 5647 5646 5647 5647 5647 5647 5647 5647 5647 5647 5647 5647 5647 5647 5647 5647 5646 5646 5645 5645 5644 5644 5643 5643 5643 5643 5643 5644 5644 5644 5645 5645 5645 5645 5645 5645 5646 5646 5646 5647 5647 5648 5648 5649 5649 5650 5651 5652 5652 5653 5654 5655 5655 5656 5656 5656 5657 5657 5657 5657 5657 5657 5657 5657 5657 5657 5657 5656 5656 5656 5655 5655 5654 5654 5653 5652 5651 5650
5646 5646 5646 5646 5646 5646 5646 5646 5646 5646 5646 5646 5646 5646 5646 5647 5647 5647 5648 5648 5648 5647 5647 5647 5647 5646 5646 5646 5646 5645 5645 5645 5645 5645 5645 5646 5646 5646 5646 5646 5646 5646 5646 5646 5646 5646 5647 5648 5648 5649 5649 5650 5650 5651 5652 5652 5653 5654 5655 5655 5655 5656 5656 5656 5656 5656 5656 5656 5655 5655 5655 5655 5654 5654 5653 5653 5652 5652 5651 5650 5649 5648 5647 5647 5646
5645 5645 5645 5645 5645 5645 5645 5646 5646 5646 5646 5646 5646 5646 5646 5647 5647 5647 5648 5648 5648 5648 5648 5648 5647 5647 5647 5647 5647 5647 5646 5646 5646 5647 5647 5647 5647 5647 5647 5647 5647 5647 5647 5647 5648 5648 5648 5649 5650 5650 5650 5650 5651 5651 5651 5652 5652 5653 5653 5653 5654 5654 5654 5654 5654 5654 5654 5654 5653 5653 5652 5652 5651 5650 5650 5649 5648 5648 5647 5646 5646 5645 5644 5643 5642
5644 5644 5644 5644 5645 5645 5645 5646 5646 5646 5646 5646 5646 5647 5647 5647 5647 5648 5648 5648 5649 5649 5649 5649 5648 5648 5649 5648 5648 5648 5647 5647 5647 5648 5648 5648 5648 5648 5647 5647 5648 5648 5648 5648 5649 5649 5649 5650 5650 5650 5650 5650 5651 5651 5651 5651 5652 5652 5652 5652 5652 5652 5652 5652 5652 5652 5651 5651 5651 5650 5650 5649 5648 5648 5647 5646 5646 5645 5644 5643 5642 5641 5640 5639 5638
5645 5644 5644 5645 5645 5645 5646 5646 5646 5647 5647 5647 5647 5647 5647 5647 5648 5648 5649 5649 5649 5649 5649 5649 5649 5649 5649 5649 5649 5649 5649 5649 5649 5649 5649 5648 5648 5648 5648 5648 5648 5648 5648 5649 5649 5650 5650 5650 5650 5650 5650 5650 5650 5651 5651 5651 5651 5651 5651 5651 5651 5651 5650 5650 5650 5650 5649 5649 5648 5648 5647 5647 5646 5645 5645 5644 5643 5642 5641 5640 5638 5637 5636 5634 5633
5646 5646 5646 5646 5646 5646 5647 5647 5647 5647 5647 5647 5647 5647 5648 5648 5648 5648 5649 5650 5650 5650 5650 5650 5650 5650 5650 5650 5650 5650 5650 5650 5650 5650 5649 5649 5649 5649 5649 5649 5649 5649 5649 5649 5650 5650 5650 5650 5650 5650 5650 5650 5650 5650 5650 5650 5650 5650 5650 5650 5650 5650 5649 5649 5649 5648 5648 5647 5646 5646 5645 5644 5643 5642 5641 5640 5639 5638 5636 5635 5633 5632 5630 5629 5627
5648 5648 5648 5647 5647 5647 5648 5648 5647 5647 5647 5647 5647 5648 5648 5648 5648 5649 5650 5650 5651 5651 5651 5651 5651 5651 5651 5651 5651 5650 5650 5651 5650 5650 5650 5650 5650 5650 5650 5650 5650 5650 5650 5650 5650 5650 5650 5650 5650 5650 5650 5650 5650 5650 5650 5650 5650 5650 5650 5649 5649 5648 5648 5647 5646 5646 5645 5644 5644 5643 5642 5640 5639 5638 5636 5635 5634 5632 5631 5630 5628 5627 5625 5624 5622
5651 5650 5650 5649 5649 5649 5649 5649 5648 5648 5648 5648 5648 5648 5648 5649 5649 5649 5650 5650 5651 5651 5652 5652 5652 5652 5652 5652 5652 5651 5651 5651 5651 5651 5651 5651 5651 5651 5651 5651 5651 5651 5651 5651 5651 5651 5651 5651 5651 5651 5651 5650 5650 5650 5649 5649 5649 5648 5648 5647 5647 5646 5645 5645 5644 5643 5642 5641 5640 5639 5638 5636 5635 5633 5632 5631 5629 5628 5627 5625 5624 5623 5621 5620 5618
5653 5653 5652 5651 5651 5651 5651 5650 5650 5650 5649 5649 5649 5649 5649 5649 5650 5650 5650 5651 5652 5652 5652 5653 5653 5653 5653 5653 5653 5653 5653 5653 5653 5653 5653 5652 5652 5652 5652 5652 5652 5652 5652 5652 5652 5651 5651 5651 5650 5650 5650 5649 5649 5648 5648 5648 5647 5647 5647 5646 5645 5644 5643 5642 5641 5640 5639 5638 5636 5635 5634 5632 5631 5630 5629 5627 5626 5625 5623 5621 5620 5618 5617 5615 5613